Year,Month,Day,Hour,Minute,Value (Times are PST for temperature in C)
2014,04,30,00,00,8.60
2014,04,30,00,01,8.60
2014,04,30,00,02,8.60
2014,04,30,00,03,8.60
2014,04,30,00,04,8.60
2014,04,30,00,05,8.60
2014,04,30,00,06,8.60
2014,04,30,00,07,8.60
2014,04,30,00,08,8.60
2014,04,30,00,09,8.60
2014,04,30,00,10,8.60
2014,04,30,00,11,8.60
2014,04,30,00,12,8.60
2014,04,30,00,13,8.60
2014,04,30,00,14,8.60
2014,04,30,00,15,8.60
2014,04,30,00,16,8.60
2014,04,30,00,17,8.60
2014,04,30,00,18,8.60
2014,04,30,00,19,8.60
2014,04,30,00,20,8.60
2014,04,30,00,21,8.60
2014,04,30,00,22,8.60
2014,04,30,00,23,8.50
2014,04,30,00,24,8.50
2014,04,30,00,25,8.50
2014,04,30,00,26,8.50
2014,04,30,00,27,8.50
2014,04,30,00,28,8.50
2014,04,30,00,29,8.50
2014,04,30,00,30,8.50
2014,04,30,00,31,8.50
2014,04,30,00,32,8.50
2014,04,30,00,33,8.50
2014,04,30,00,34,8.50
2014,04,30,00,35,8.50
2014,04,30,00,36,8.50
2014,04,30,00,37,8.50
2014,04,30,00,38,8.50
2014,04,30,00,39,8.60
2014,04,30,00,40,8.50
2014,04,30,00,41,8.50
2014,04,30,00,42,8.60
2014,04,30,00,43,8.60
2014,04,30,00,44,8.50
2014,04,30,00,45,8.50
2014,04,30,00,46,8.60
2014,04,30,00,47,8.60
2014,04,30,00,48,8.60
2014,04,30,00,49,8.60
2014,04,30,00,50,8.60
2014,04,30,00,51,8.50
2014,04,30,00,52,8.50
2014,04,30,00,53,8.60
2014,04,30,00,54,8.60
2014,04,30,00,55,8.60
2014,04,30,00,56,8.60
2014,04,30,00,57,8.60
2014,04,30,00,58,8.60
2014,04,30,00,59,8.60
2014,04,30,01,00,8.60
2014,04,30,01,01,8.60
2014,04,30,01,02,8.60
2014,04,30,01,03,8.60
2014,04,30,01,04,8.60
2014,04,30,01,05,8.60
2014,04,30,01,06,8.50
2014,04,30,01,07,8.60
2014,04,30,01,08,8.60
2014,04,30,01,09,8.50
2014,04,30,01,10,8.50
2014,04,30,01,11,8.50
2014,04,30,01,12,8.50
2014,04,30,01,13,8.50
2014,04,30,01,14,8.50
2014,04,30,01,15,8.50
2014,04,30,01,16,8.50
2014,04,30,01,17,8.50
2014,04,30,01,18,8.50
2014,04,30,01,19,8.50
2014,04,30,01,20,8.50
2014,04,30,01,21,8.50
2014,04,30,01,22,8.50
2014,04,30,01,23,8.50
2014,04,30,01,24,8.50
2014,04,30,01,25,8.50
2014,04,30,01,26,8.50
2014,04,30,01,27,8.50
2014,04,30,01,28,8.50
2014,04,30,01,29,8.50
2014,04,30,01,30,8.50
2014,04,30,01,31,8.50
2014,04,30,01,32,8.60
2014,04,30,01,33,8.60
2014,04,30,01,34,8.60
2014,04,30,01,35,8.60
2014,04,30,01,36,8.60
2014,04,30,01,37,8.60
2014,04,30,01,38,8.60
2014,04,30,01,39,8.60
2014,04,30,01,40,8.60
2014,04,30,01,41,8.60
2014,04,30,01,42,8.60
2014,04,30,01,43,8.60
2014,04,30,01,44,8.60
2014,04,30,01,45,8.60
2014,04,30,01,49,8.70
2014,04,30,01,50,8.70
2014,04,30,01,51,8.70
2014,04,30,01,52,8.70
2014,04,30,01,53,8.70
2014,04,30,01,54,8.70
2014,04,30,01,55,8.70
2014,04,30,01,56,8.70
2014,04,30,01,57,8.70
2014,04,30,01,58,8.70
2014,04,30,01,59,8.70
2014,04,30,02,00,8.70
2014,04,30,02,01,8.70
2014,04,30,02,02,8.70
2014,04,30,02,03,8.70
2014,04,30,02,04,8.70
2014,04,30,02,05,8.70
2014,04,30,02,06,8.70
2014,04,30,02,07,8.70
2014,04,30,02,08,8.70
2014,04,30,02,09,8.70
2014,04,30,02,10,8.70
2014,04,30,02,11,8.70
2014,04,30,02,12,8.70
2014,04,30,02,13,8.70
2014,04,30,02,14,8.70
2014,04,30,02,15,8.70
2014,04,30,02,16,8.70
2014,04,30,02,17,8.70
2014,04,30,02,18,8.70
2014,04,30,02,19,8.80
2014,04,30,02,20,8.80
2014,04,30,02,21,8.80
2014,04,30,02,22,8.80
2014,04,30,02,23,8.80
2014,04,30,02,24,8.80
2014,04,30,02,25,8.80
2014,04,30,02,26,8.80
2014,04,30,02,27,8.80
2014,04,30,02,28,8.80
2014,04,30,02,29,8.80
2014,04,30,02,30,8.80
2014,04,30,02,31,8.80
2014,04,30,02,32,8.80
2014,04,30,02,33,8.80
2014,04,30,02,34,8.80
2014,04,30,02,35,8.80
2014,04,30,02,36,8.80
2014,04,30,02,37,8.80
2014,04,30,02,38,8.80
2014,04,30,02,39,8.80
2014,04,30,02,40,8.90
2014,04,30,02,41,8.90
2014,04,30,02,42,8.90
2014,04,30,02,43,8.90
2014,04,30,02,44,8.90
2014,04,30,02,45,8.90
2014,04,30,02,46,8.90
2014,04,30,02,47,8.90
2014,04,30,02,48,8.90
2014,04,30,02,49,8.90
2014,04,30,02,50,8.90
2014,04,30,02,51,8.90
2014,04,30,02,52,8.90
2014,04,30,02,53,8.90
2014,04,30,02,54,8.90
2014,04,30,02,55,8.90
2014,04,30,02,56,8.90
2014,04,30,02,57,8.90
2014,04,30,02,58,8.90
2014,04,30,02,59,8.90
2014,04,30,03,00,8.90
2014,04,30,03,01,8.90
2014,04,30,03,02,8.90
2014,04,30,03,03,8.90
2014,04,30,03,04,8.90
2014,04,30,03,05,8.90
2014,04,30,03,06,8.90
2014,04,30,03,07,8.90
2014,04,30,03,08,8.90
2014,04,30,03,09,8.90
2014,04,30,03,10,9.00
2014,04,30,03,11,9.00
2014,04,30,03,12,9.00
2014,04,30,03,13,9.00
2014,04,30,03,14,9.00
2014,04,30,03,15,9.00
2014,04,30,03,16,9.00
2014,04,30,03,17,9.00
2014,04,30,03,18,9.00
2014,04,30,03,19,9.00
2014,04,30,03,20,9.00
2014,04,30,03,21,9.00
2014,04,30,03,22,9.00
2014,04,30,03,23,9.00
2014,04,30,03,24,9.00
2014,04,30,03,25,9.00
2014,04,30,03,26,9.00
2014,04,30,03,27,9.00
2014,04,30,03,28,9.00
2014,04,30,03,29,9.00
2014,04,30,03,30,9.00
2014,04,30,03,31,9.00
2014,04,30,03,32,9.00
2014,04,30,03,33,9.00
2014,04,30,03,34,9.00
2014,04,30,03,35,9.00
2014,04,30,03,36,9.00
2014,04,30,03,37,9.00
2014,04,30,03,38,9.00
2014,04,30,03,39,9.00
2014,04,30,03,40,9.00
2014,04,30,03,41,9.00
2014,04,30,03,42,9.00
2014,04,30,03,43,9.00
2014,04,30,03,44,9.00
2014,04,30,03,45,9.00
2014,04,30,03,46,9.00
2014,04,30,03,47,9.00
2014,04,30,03,48,9.00
2014,04,30,03,49,9.00
2014,04,30,03,50,9.00
2014,04,30,03,51,9.00
2014,04,30,03,52,9.00
2014,04,30,03,53,8.90
2014,04,30,03,54,8.90
2014,04,30,03,55,8.90
2014,04,30,03,56,8.90
2014,04,30,03,57,8.90
2014,04,30,03,58,8.90
2014,04,30,03,59,8.90
2014,04,30,04,00,8.90
2014,04,30,04,01,8.90
2014,04,30,04,02,8.90
2014,04,30,04,03,8.90
2014,04,30,04,04,8.90
2014,04,30,04,05,8.90
2014,04,30,04,06,8.90
2014,04,30,04,07,8.90
2014,04,30,04,08,8.90
2014,04,30,04,09,8.80
2014,04,30,04,10,8.80
2014,04,30,04,11,8.80
2014,04,30,04,12,8.80
2014,04,30,04,13,8.80
2014,04,30,04,14,8.80
2014,04,30,04,15,8.80
2014,04,30,04,16,8.80
2014,04,30,04,17,8.80
2014,04,30,04,18,8.80
2014,04,30,04,19,8.80
2014,04,30,04,20,8.80
2014,04,30,04,21,8.80
2014,04,30,04,22,8.80
2014,04,30,04,23,8.80
2014,04,30,04,24,8.80
2014,04,30,04,25,8.80
2014,04,30,04,26,8.80
2014,04,30,04,27,8.80
2014,04,30,04,28,8.80
2014,04,30,04,29,8.80
2014,04,30,04,30,8.80
2014,04,30,04,31,8.80
2014,04,30,04,32,8.80
2014,04,30,04,33,8.80
2014,04,30,04,34,8.80
2014,04,30,04,35,8.80
2014,04,30,04,36,8.80
2014,04,30,04,37,8.80
2014,04,30,04,38,8.80
2014,04,30,04,39,8.80
2014,04,30,04,40,8.80
2014,04,30,04,41,8.80
2014,04,30,04,42,8.80
2014,04,30,04,43,8.80
2014,04,30,04,44,8.80
2014,04,30,04,45,8.90
2014,04,30,04,46,8.90
2014,04,30,04,47,8.90
2014,04,30,04,48,8.90
2014,04,30,04,49,8.90
2014,04,30,04,50,8.90
2014,04,30,04,51,8.90
2014,04,30,04,52,8.90
2014,04,30,04,53,8.90
2014,04,30,04,54,8.90
2014,04,30,04,55,8.90
2014,04,30,04,56,8.90
2014,04,30,04,57,8.90
2014,04,30,04,58,8.90
2014,04,30,04,59,8.90
2014,04,30,05,00,8.90
2014,04,30,05,01,8.90
2014,04,30,05,02,8.90
2014,04,30,05,03,8.90
2014,04,30,05,04,8.90
2014,04,30,05,05,8.90
2014,04,30,05,06,8.90
2014,04,30,05,07,8.90
2014,04,30,05,08,8.90
2014,04,30,05,09,9.00
2014,04,30,05,10,9.00
2014,04,30,05,11,9.00
2014,04,30,05,12,9.00
2014,04,30,05,13,9.00
2014,04,30,05,14,9.00
2014,04,30,05,15,9.00
2014,04,30,05,16,9.00
2014,04,30,05,17,9.00
2014,04,30,05,18,9.00
2014,04,30,05,19,9.00
2014,04,30,05,20,9.00
2014,04,30,05,21,9.00
2014,04,30,05,22,9.00
2014,04,30,05,23,9.00
2014,04,30,05,24,9.00
2014,04,30,05,25,9.00
2014,04,30,05,26,9.00
2014,04,30,05,27,9.00
2014,04,30,05,28,9.00
2014,04,30,05,29,9.00
2014,04,30,05,30,9.00
2014,04,30,05,31,9.00
2014,04,30,05,32,9.00
2014,04,30,05,33,9.00
2014,04,30,05,34,9.00
2014,04,30,05,35,9.00
2014,04,30,05,36,9.00
2014,04,30,05,37,9.00
2014,04,30,05,38,9.00
2014,04,30,05,39,9.00
2014,04,30,05,40,9.00
2014,04,30,05,41,9.00
2014,04,30,05,42,9.00
2014,04,30,05,43,9.00
2014,04,30,05,44,9.00
2014,04,30,05,45,9.00
2014,04,30,05,46,9.00
2014,04,30,05,47,9.00
2014,04,30,05,48,9.00
2014,04,30,05,49,9.00
2014,04,30,05,50,9.00
2014,04,30,05,51,9.00
2014,04,30,05,52,9.00
2014,04,30,05,53,9.00
2014,04,30,05,54,9.00
2014,04,30,05,55,9.00
2014,04,30,05,56,9.00
2014,04,30,05,57,9.00
2014,04,30,05,58,9.00
2014,04,30,05,59,9.00
2014,04,30,06,00,9.00
2014,04,30,06,01,9.00
2014,04,30,06,02,9.00
2014,04,30,06,03,9.00
2014,04,30,06,04,9.00
2014,04,30,06,05,9.00
2014,04,30,06,06,9.00
2014,04,30,06,07,9.00
2014,04,30,06,08,9.00
2014,04,30,06,09,9.00
2014,04,30,06,10,9.00
2014,04,30,06,11,9.00
2014,04,30,06,12,9.00
2014,04,30,06,13,9.00
2014,04,30,06,14,9.00
2014,04,30,06,15,9.00
2014,04,30,06,16,9.00
2014,04,30,06,17,9.00
2014,04,30,06,18,9.00
2014,04,30,06,19,9.00
2014,04,30,06,20,9.00
2014,04,30,06,21,9.00
2014,04,30,06,22,9.00
2014,04,30,06,23,9.00
2014,04,30,06,24,9.00
2014,04,30,06,25,9.10
2014,04,30,06,26,9.10
2014,04,30,06,27,9.10
2014,04,30,06,28,9.10
2014,04,30,06,29,9.10
2014,04,30,06,30,9.10
2014,04,30,06,31,9.10
2014,04,30,06,32,9.10
2014,04,30,06,33,9.10
2014,04,30,06,34,9.10
2014,04,30,06,35,9.10
2014,04,30,06,36,9.10
2014,04,30,06,37,9.10
2014,04,30,06,38,9.10
2014,04,30,06,39,9.10
2014,04,30,06,40,9.10
2014,04,30,06,41,9.10
2014,04,30,06,42,9.10
2014,04,30,06,43,9.10
2014,04,30,06,44,9.10
2014,04,30,06,45,9.20
2014,04,30,06,46,9.20
2014,04,30,06,47,9.20
2014,04,30,06,48,9.20
2014,04,30,06,49,9.20
2014,04,30,06,50,9.20
2014,04,30,06,51,9.20
2014,04,30,06,52,9.20
2014,04,30,06,53,9.20
2014,04,30,06,54,9.20
2014,04,30,06,55,9.30
2014,04,30,06,56,9.30
2014,04,30,06,57,9.30
2014,04,30,06,58,9.30
2014,04,30,06,59,9.30
2014,04,30,07,00,9.30
2014,04,30,07,01,9.30
2014,04,30,07,02,9.40
2014,04,30,07,03,9.40
2014,04,30,07,04,9.40
2014,04,30,07,05,9.40
2014,04,30,07,06,9.40
2014,04,30,07,07,9.40
2014,04,30,07,08,9.50
2014,04,30,07,09,9.50
2014,04,30,07,10,9.50
2014,04,30,07,11,9.60
2014,04,30,07,12,9.60
2014,04,30,07,13,9.60
2014,04,30,07,14,9.60
2014,04,30,07,15,9.60
2014,04,30,07,16,9.60
2014,04,30,07,17,9.60
2014,04,30,07,18,9.70
2014,04,30,07,19,9.70
2014,04,30,07,20,9.70
2014,04,30,07,21,9.70
2014,04,30,07,22,9.70
2014,04,30,07,23,9.70
2014,04,30,07,24,9.70
2014,04,30,07,25,9.70
2014,04,30,07,26,9.80
2014,04,30,07,27,9.80
2014,04,30,07,28,9.80
2014,04,30,07,29,9.80
2014,04,30,07,30,9.80
2014,04,30,07,31,9.80
2014,04,30,07,32,9.90
2014,04,30,07,33,9.90
2014,04,30,07,34,9.90
2014,04,30,07,35,9.90
2014,04,30,07,36,9.90
2014,04,30,07,37,10.00
2014,04,30,07,38,10.00
2014,04,30,07,39,10.00
2014,04,30,07,40,10.00
2014,04,30,07,41,10.10
2014,04,30,07,42,10.10
2014,04,30,07,43,10.10
2014,04,30,07,44,10.10
2014,04,30,07,45,10.20
2014,04,30,07,46,10.20
2014,04,30,07,47,10.20
2014,04,30,07,48,10.20
2014,04,30,07,49,10.30
2014,04,30,07,50,10.30
2014,04,30,07,51,10.30
2014,04,30,07,52,10.40
2014,04,30,07,53,10.40
2014,04,30,07,54,10.40
2014,04,30,07,55,10.40
2014,04,30,07,56,10.40
2014,04,30,07,57,10.50
2014,04,30,07,58,10.50
2014,04,30,07,59,10.60
2014,04,30,08,00,10.60
2014,04,30,08,01,10.60
2014,04,30,08,02,10.70
2014,04,30,08,03,10.80
2014,04,30,08,04,10.80
2014,04,30,08,05,10.90
2014,04,30,08,06,11.00
2014,04,30,08,07,11.00
2014,04,30,08,08,11.10
2014,04,30,08,09,11.10
2014,04,30,08,10,11.20
2014,04,30,08,11,11.20
2014,04,30,08,12,11.30
2014,04,30,08,13,11.30
2014,04,30,08,14,11.40
2014,04,30,08,15,11.40
2014,04,30,08,16,11.40
2014,04,30,08,17,11.40
2014,04,30,08,18,11.50
2014,04,30,08,19,11.50
2014,04,30,08,20,11.50
2014,04,30,08,21,11.60
2014,04,30,08,22,11.60
2014,04,30,08,23,11.60
2014,04,30,08,24,11.60
2014,04,30,08,25,11.60
2014,04,30,08,26,11.60
2014,04,30,08,27,11.60
2014,04,30,08,28,11.60
2014,04,30,08,29,11.60
2014,04,30,08,30,11.50
2014,04,30,08,31,11.50
2014,04,30,08,32,11.50
2014,04,30,08,33,11.50
2014,04,30,08,34,11.50
2014,04,30,08,35,11.50
2014,04,30,08,36,11.50
2014,04,30,08,37,11.50
2014,04,30,08,38,11.50
2014,04,30,08,39,11.50
2014,04,30,08,40,11.50
2014,04,30,08,41,11.50
2014,04,30,08,42,11.50
2014,04,30,08,43,11.50
2014,04,30,08,44,11.60
2014,04,30,08,45,11.60
2014,04,30,08,46,11.60
2014,04,30,08,47,11.60
2014,04,30,08,48,11.60
2014,04,30,08,49,11.60
2014,04,30,08,50,11.70
2014,04,30,08,51,11.70
2014,04,30,08,52,11.70
2014,04,30,08,53,11.70
2014,04,30,08,54,11.70
2014,04,30,08,55,11.70
2014,04,30,08,56,11.70
2014,04,30,08,57,11.70
2014,04,30,08,58,11.70
2014,04,30,08,59,11.70
2014,04,30,09,00,11.80
2014,04,30,09,01,11.80
2014,04,30,09,02,11.80
2014,04,30,09,03,11.80
2014,04,30,09,04,11.80
2014,04,30,09,05,11.80
2014,04,30,09,06,11.80
2014,04,30,09,07,11.80
2014,04,30,09,08,11.90
2014,04,30,09,09,11.90
2014,04,30,09,10,11.90
2014,04,30,09,11,11.90
2014,04,30,09,12,11.90
2014,04,30,09,13,12.00
2014,04,30,09,14,12.00
2014,04,30,09,15,12.10
2014,04,30,09,16,12.10
2014,04,30,09,17,12.10
2014,04,30,09,18,12.10
2014,04,30,09,19,12.20
2014,04,30,09,20,12.20
2014,04,30,09,21,12.20
2014,04,30,09,22,12.20
2014,04,30,09,23,12.20
2014,04,30,09,24,12.20
2014,04,30,09,25,12.20
2014,04,30,09,26,12.20
2014,04,30,09,27,12.20
2014,04,30,09,28,12.20
2014,04,30,09,29,12.20
2014,04,30,09,30,12.20
2014,04,30,09,31,12.20
2014,04,30,09,32,12.20
2014,04,30,09,33,12.30
2014,04,30,09,34,12.30
2014,04,30,09,35,12.40
2014,04,30,09,36,12.40
2014,04,30,09,37,12.50
2014,04,30,09,38,12.60
2014,04,30,09,39,12.70
2014,04,30,09,40,12.70
2014,04,30,09,41,12.80
2014,04,30,09,42,12.90
2014,04,30,09,43,12.90
2014,04,30,09,44,13.00
2014,04,30,09,45,13.10
2014,04,30,09,46,13.20
2014,04,30,09,47,13.20
2014,04,30,09,48,13.30
2014,04,30,09,49,13.40
2014,04,30,09,50,13.50
2014,04,30,09,51,13.50
2014,04,30,09,52,13.60
2014,04,30,09,53,13.60
2014,04,30,09,54,13.70
2014,04,30,09,55,13.70
2014,04,30,09,56,13.70
2014,04,30,09,57,13.70
2014,04,30,09,58,13.70
2014,04,30,09,59,13.70
2014,04,30,10,00,13.80
2014,04,30,10,01,13.80
2014,04,30,10,02,13.90
2014,04,30,10,03,14.00
2014,04,30,10,04,14.00
2014,04,30,10,05,13.90
2014,04,30,10,06,13.80
2014,04,30,10,07,13.80
2014,04,30,10,08,13.70
2014,04,30,10,09,13.70
2014,04,30,10,10,13.70
2014,04,30,10,11,13.60
2014,04,30,10,12,13.60
2014,04,30,10,13,13.50
2014,04,30,10,14,13.50
2014,04,30,10,15,13.40
2014,04,30,10,16,13.40
2014,04,30,10,17,13.40
2014,04,30,10,18,13.40
2014,04,30,10,19,13.40
2014,04,30,10,20,13.40
2014,04,30,10,21,13.40
2014,04,30,10,22,13.50
2014,04,30,10,23,13.50
2014,04,30,10,24,13.50
2014,04,30,10,25,13.40
2014,04,30,10,26,13.40
2014,04,30,10,27,13.40
2014,04,30,10,28,13.40
2014,04,30,10,29,13.40
2014,04,30,10,30,13.50
2014,04,30,10,31,13.50
2014,04,30,10,32,13.50
2014,04,30,10,33,13.60
2014,04,30,10,34,13.60
2014,04,30,10,35,13.60
2014,04,30,10,36,13.60
2014,04,30,10,37,13.60
2014,04,30,10,38,13.60
2014,04,30,10,39,13.60
2014,04,30,10,40,13.60
2014,04,30,10,41,13.50
2014,04,30,10,42,13.50
2014,04,30,10,43,13.50
2014,04,30,10,44,13.50
2014,04,30,10,45,13.50
2014,04,30,10,46,13.50
2014,04,30,10,47,13.50
2014,04,30,10,48,13.40
2014,04,30,10,49,13.50
2014,04,30,10,50,13.50
2014,04,30,10,51,13.60
2014,04,30,10,52,13.60
2014,04,30,10,53,13.60
2014,04,30,10,54,13.60
2014,04,30,10,55,13.70
2014,04,30,10,56,13.70
2014,04,30,10,57,13.80
2014,04,30,10,58,13.80
2014,04,30,10,59,13.90
2014,04,30,11,00,13.90
2014,04,30,11,01,14.00
2014,04,30,11,02,14.00
2014,04,30,11,03,14.00
2014,04,30,11,04,14.00
2014,04,30,11,05,14.00
2014,04,30,11,06,13.90
2014,04,30,11,07,13.90
2014,04,30,11,08,14.00
2014,04,30,11,09,14.00
2014,04,30,11,10,14.00
2014,04,30,11,11,14.00
2014,04,30,11,12,14.10
2014,04,30,11,13,14.10
2014,04,30,11,14,14.10
2014,04,30,11,15,14.10
2014,04,30,11,16,14.10
2014,04,30,11,17,14.10
2014,04,30,11,18,14.10
2014,04,30,11,19,14.10
2014,04,30,11,20,14.10
2014,04,30,11,21,14.10
2014,04,30,11,22,14.10
2014,04,30,11,23,14.10
2014,04,30,11,24,14.20
2014,04,30,11,25,14.20
2014,04,30,11,26,14.20
2014,04,30,11,27,14.20
2014,04,30,11,28,14.20
2014,04,30,11,29,14.30
2014,04,30,11,30,14.30
2014,04,30,11,31,14.30
2014,04,30,11,32,14.30
2014,04,30,11,33,14.30
2014,04,30,11,34,14.40
2014,04,30,11,35,14.40
2014,04,30,11,36,14.50
2014,04,30,11,37,14.60
2014,04,30,11,38,14.70
2014,04,30,11,39,14.80
2014,04,30,11,40,15.00
2014,04,30,11,41,15.00
2014,04,30,11,42,15.00
2014,04,30,11,43,15.20
2014,04,30,11,44,15.20
2014,04,30,11,45,15.20
2014,04,30,11,46,15.20
2014,04,30,11,47,15.30
2014,04,30,11,48,15.30
2014,04,30,11,49,15.40
2014,04,30,11,50,15.50
2014,04,30,11,51,15.60
2014,04,30,11,52,15.60
2014,04,30,11,53,15.70
2014,04,30,11,54,15.60
2014,04,30,11,55,15.50
2014,04,30,11,56,15.40
2014,04,30,11,57,15.30
2014,04,30,11,58,15.20
2014,04,30,11,59,15.10
2014,04,30,12,00,15.00
2014,04,30,12,01,15.00
2014,04,30,12,02,15.00
2014,04,30,12,03,15.00
2014,04,30,12,04,15.00
2014,04,30,12,05,15.00
2014,04,30,12,06,15.10
2014,04,30,12,07,15.20
2014,04,30,12,08,15.20
2014,04,30,12,09,15.30
2014,04,30,12,10,15.30
2014,04,30,12,11,15.30
2014,04,30,12,12,15.40
2014,04,30,12,13,15.40
2014,04,30,12,14,15.40
2014,04,30,12,15,15.40
2014,04,30,12,16,15.40
2014,04,30,12,17,15.50
2014,04,30,12,18,15.60
2014,04,30,12,19,15.60
2014,04,30,12,20,15.60
2014,04,30,12,21,15.70
2014,04,30,12,22,15.70
2014,04,30,12,23,15.70
2014,04,30,12,24,15.80
2014,04,30,12,25,15.80
2014,04,30,12,26,15.80
2014,04,30,12,27,15.80
2014,04,30,12,28,15.80
2014,04,30,12,29,15.80
2014,04,30,12,30,15.80
2014,04,30,12,31,15.80
2014,04,30,12,32,15.80
2014,04,30,12,33,15.90
2014,04,30,12,34,15.90
2014,04,30,12,35,16.00
2014,04,30,12,36,16.00
2014,04,30,12,37,16.20
2014,04,30,12,38,16.20
2014,04,30,12,39,16.30
2014,04,30,12,40,16.40
2014,04,30,12,41,16.50
2014,04,30,12,42,16.50
2014,04,30,12,43,16.70
2014,04,30,12,44,16.70
2014,04,30,12,45,16.80
2014,04,30,12,46,16.90
2014,04,30,12,47,17.00
2014,04,30,12,48,17.10
2014,04,30,12,49,17.20
2014,04,30,12,50,17.20
2014,04,30,12,51,17.30
2014,04,30,12,52,17.50
2014,04,30,12,53,17.60
2014,04,30,12,54,17.60
2014,04,30,12,55,17.60
2014,04,30,12,56,17.70
2014,04,30,12,57,17.60
2014,04,30,12,58,17.50
2014,04,30,12,59,17.50
2014,04,30,13,00,17.40
2014,04,30,13,01,17.30
2014,04,30,13,02,17.30
2014,04,30,13,03,17.20
2014,04,30,13,04,17.20
2014,04,30,13,05,17.20
2014,04,30,13,06,17.20
2014,04,30,13,07,17.20
2014,04,30,13,08,17.20
2014,04,30,13,09,17.10
2014,04,30,13,10,17.10
2014,04,30,13,11,17.10
2014,04,30,13,12,17.10
2014,04,30,13,13,17.10
2014,04,30,13,14,17.10
2014,04,30,13,15,17.10
2014,04,30,13,16,17.10
2014,04,30,13,17,17.10
2014,04,30,13,18,17.10
2014,04,30,13,19,17.20
2014,04,30,13,20,17.20
2014,04,30,13,21,17.30
2014,04,30,13,22,17.30
2014,04,30,13,23,17.40
2014,04,30,13,24,17.40
2014,04,30,13,25,17.50
2014,04,30,13,26,17.60
2014,04,30,13,27,17.70
2014,04,30,13,28,17.80
2014,04,30,13,29,17.90
2014,04,30,13,30,18.00
2014,04,30,13,31,18.10
2014,04,30,13,32,18.20
2014,04,30,13,33,18.20
2014,04,30,13,34,18.20
2014,04,30,13,35,18.20
2014,04,30,13,36,18.30
2014,04,30,13,37,18.30
2014,04,30,13,38,18.30
2014,04,30,13,39,18.30
2014,04,30,13,40,18.20
2014,04,30,13,41,18.20
2014,04,30,13,42,18.20
2014,04,30,13,43,18.20
2014,04,30,13,44,18.20
2014,04,30,13,45,18.20
2014,04,30,13,46,18.20
2014,04,30,13,47,18.10
2014,04,30,13,48,18.10
2014,04,30,13,49,18.10
2014,04,30,13,50,18.10
2014,04,30,13,51,18.20
2014,04,30,13,52,18.30
2014,04,30,13,53,18.40
2014,04,30,13,54,18.60
2014,04,30,13,55,18.70
2014,04,30,13,56,18.90
2014,04,30,13,57,19.00
2014,04,30,13,58,19.20
2014,04,30,13,59,19.30
2014,04,30,14,00,19.40
2014,04,30,14,01,19.60
2014,04,30,14,02,19.70
2014,04,30,14,03,19.80
2014,04,30,14,04,20.00
2014,04,30,14,05,20.00
2014,04,30,14,06,20.20
2014,04,30,14,07,20.20
2014,04,30,14,08,20.30
2014,04,30,14,09,20.30
2014,04,30,14,10,20.40
2014,04,30,14,11,20.50
2014,04,30,14,12,20.60
2014,04,30,14,13,20.70
2014,04,30,14,14,20.70
2014,04,30,14,15,20.70
2014,04,30,14,16,20.70
2014,04,30,14,17,20.60
2014,04,30,14,18,20.60
2014,04,30,14,19,20.60
2014,04,30,14,20,20.60
2014,04,30,14,21,20.60
2014,04,30,14,22,20.60
2014,04,30,14,23,20.50
2014,04,30,14,24,20.40
2014,04,30,14,25,20.30
2014,04,30,14,26,20.30
2014,04,30,14,27,20.20
2014,04,30,14,28,20.00
2014,04,30,14,29,19.70
2014,04,30,14,30,19.50
2014,04,30,14,31,19.30
2014,04,30,14,32,19.20
2014,04,30,14,33,19.00
2014,04,30,14,34,18.90
2014,04,30,14,35,18.90
2014,04,30,14,36,18.80
2014,04,30,14,37,18.70
2014,04,30,14,38,18.60
2014,04,30,14,39,18.50
2014,04,30,14,40,18.40
2014,04,30,14,41,18.30
2014,04,30,14,42,18.20
2014,04,30,14,43,18.20
2014,04,30,14,44,18.20
2014,04,30,14,45,18.10
2014,04,30,14,46,18.20
2014,04,30,14,47,18.20
2014,04,30,14,48,18.20
2014,04,30,14,49,18.20
2014,04,30,14,50,18.20
2014,04,30,14,51,18.20
2014,04,30,14,52,18.10
2014,04,30,14,53,18.00
2014,04,30,14,54,17.90
2014,04,30,14,55,17.90
2014,04,30,14,56,17.90
2014,04,30,14,57,17.80
2014,04,30,14,58,17.80
2014,04,30,14,59,17.80
2014,04,30,15,00,17.80
2014,04,30,15,01,17.90
2014,04,30,15,02,18.00
2014,04,30,15,03,18.10
2014,04,30,15,04,18.20
2014,04,30,15,05,18.20
2014,04,30,15,06,18.30
2014,04,30,15,07,18.30
2014,04,30,15,08,18.40
2014,04,30,15,09,18.40
2014,04,30,15,10,18.40
2014,04,30,15,11,18.40
2014,04,30,15,12,18.40
2014,04,30,15,13,18.40
2014,04,30,15,14,18.30
2014,04,30,15,15,18.30
2014,04,30,15,16,18.30
2014,04,30,15,17,18.40
2014,04,30,15,18,18.50
2014,04,30,15,19,18.60
2014,04,30,15,20,18.60
2014,04,30,15,21,18.70
2014,04,30,15,22,18.90
2014,04,30,15,23,19.00
2014,04,30,15,24,19.10
2014,04,30,15,25,19.10
2014,04,30,15,26,19.20
2014,04,30,15,27,19.20
2014,04,30,15,28,19.20
2014,04,30,15,29,19.20
2014,04,30,15,30,19.20
2014,04,30,15,31,19.30
2014,04,30,15,32,19.30
2014,04,30,15,33,19.30
2014,04,30,15,34,19.40
2014,04,30,15,35,19.50
2014,04,30,15,36,19.50
2014,04,30,15,37,19.60
2014,04,30,15,38,19.60
2014,04,30,15,39,19.60
2014,04,30,15,40,19.70
2014,04,30,15,41,19.70
2014,04,30,15,42,19.80
2014,04,30,15,43,19.80
2014,04,30,15,44,19.80
2014,04,30,15,45,19.80
2014,04,30,15,46,19.80
2014,04,30,15,47,19.90
2014,04,30,15,48,19.90
2014,04,30,15,49,19.90
2014,04,30,15,50,20.00
2014,04,30,15,51,20.10
2014,04,30,15,52,20.20
2014,04,30,15,53,20.30
2014,04,30,15,54,20.40
2014,04,30,15,55,20.40
2014,04,30,15,56,20.50
2014,04,30,15,57,20.60
2014,04,30,15,58,20.70
2014,04,30,15,59,20.80
2014,04,30,16,00,20.80
2014,04,30,16,01,20.90
2014,04,30,16,02,20.90
2014,04,30,16,03,21.00
2014,04,30,16,04,21.10
2014,04,30,16,05,21.20
2014,04,30,16,06,21.30
2014,04,30,16,07,21.40
2014,04,30,16,08,21.50
2014,04,30,16,09,21.60
2014,04,30,16,10,21.70
2014,04,30,16,11,21.80
2014,04,30,16,12,21.80
2014,04,30,16,13,21.80
2014,04,30,16,14,21.80
2014,04,30,16,15,21.80
2014,04,30,16,16,21.80
2014,04,30,16,17,21.80
2014,04,30,16,18,21.80
2014,04,30,16,19,21.90
2014,04,30,16,20,22.00
2014,04,30,16,21,22.10
2014,04,30,16,22,22.10
2014,04,30,16,23,22.00
2014,04,30,16,24,21.80
2014,04,30,16,25,21.70
2014,04,30,16,26,21.60
2014,04,30,16,27,21.60
2014,04,30,16,28,21.60
2014,04,30,16,29,21.60
2014,04,30,16,30,21.70
2014,04,30,16,31,21.70
2014,04,30,16,32,21.70
2014,04,30,16,33,21.80
2014,04,30,16,34,21.80
2014,04,30,16,35,21.80
2014,04,30,16,36,21.80
2014,04,30,16,37,21.80
2014,04,30,16,38,21.80
2014,04,30,16,39,21.80
2014,04,30,16,40,21.80
2014,04,30,16,41,21.80
2014,04,30,16,42,21.80
2014,04,30,16,43,21.80
2014,04,30,16,44,21.80
2014,04,30,16,45,21.90
2014,04,30,16,46,21.90
2014,04,30,16,47,22.00
2014,04,30,16,48,21.90
2014,04,30,16,49,21.80
2014,04,30,16,50,21.80
2014,04,30,16,51,21.70
2014,04,30,16,52,21.70
2014,04,30,16,53,21.60
2014,04,30,16,54,21.60
2014,04,30,16,55,21.60
2014,04,30,16,56,21.60
2014,04,30,16,57,21.60
2014,04,30,16,58,21.60
2014,04,30,16,59,21.60
2014,04,30,17,00,21.60
2014,04,30,17,01,21.60
2014,04,30,17,02,21.70
2014,04,30,17,03,21.70
2014,04,30,17,04,21.70
2014,04,30,17,05,21.70
2014,04,30,17,06,21.70
2014,04,30,17,07,21.70
2014,04,30,17,08,21.70
2014,04,30,17,09,21.70
2014,04,30,17,10,21.70
2014,04,30,17,11,21.70
2014,04,30,17,12,21.70
2014,04,30,17,13,21.70
2014,04,30,17,14,21.70
2014,04,30,17,15,21.70
2014,04,30,17,16,21.70
2014,04,30,17,17,21.70
2014,04,30,17,18,21.70
2014,04,30,17,19,21.80
2014,04,30,17,20,21.80
2014,04,30,17,21,21.80
2014,04,30,17,22,21.80
2014,04,30,17,23,21.80
2014,04,30,17,24,21.70
2014,04,30,17,25,21.70
2014,04,30,17,26,21.80
2014,04,30,17,27,21.80
2014,04,30,17,28,21.80
2014,04,30,17,29,21.80
2014,04,30,17,30,21.80
2014,04,30,17,31,21.90
2014,04,30,17,32,22.00
2014,04,30,17,33,22.00
2014,04,30,17,34,22.10
2014,04,30,17,35,22.10
2014,04,30,17,36,22.20
2014,04,30,17,37,22.20
2014,04,30,17,38,22.30
2014,04,30,17,39,22.30
2014,04,30,17,40,22.30
2014,04,30,17,41,22.30
2014,04,30,17,42,22.40